Location: Bannatyne
(13.0833°N, 59.5333°W)
Time: 00:56:56
(UTC+00:00)

Explorer 7 - Pass Details

Date: 28 January 2020
Orbit: 485 x 679 km, 50.3° (Epoch: 20 February)

Event Time Altitude Azimuth Distance (km) Brightness Sun altitude
Rises 10:23:38 0° 301° (WNW) 2,692 - -1.1°
Exits shadow 10:23:49 - 300° (WNW) 2,625 9.6 -1.1°
Reaches altitude 10° 10:26:08 10° 287° (WNW) 1,836 8.8 -0.6°
Maximum altitude 10:29:31 24° 233° (SW) 1,223 8.3 0.2°
Drops below altitude 10° 10:33:04 10° 179° (S) 1,936 9.9 1.0°
Sets 10:35:47 0° 166° (SSE) 2,878 11.0 1.7°
